{"data":{"norad_id":68084,"intl_designator":"2026-042R","name":"STARLINK-37037","alt_names":[],"object_type":"PAYLOAD","status":"ACTIVE","operator":null,"country":"US","launch_date":"2026-03-04","launch_site_code":"AFETR","launch_vehicle":null,"mission":null,"orbit_class":"UNKNOWN","rcs_meters":null,"size_class":null,"mass_kg":null,"dimensions":null,"purposes":["comms"],"wikipedia_slug":null,"has_3d_model":false,"image_url":null,"decayed_at":null,"tle_current":{"epoch":"2026-05-24T12:06:41.475744Z","epoch_age_seconds":114512,"freshness":"FRESH","line1":"1 68084U 26042R   26144.50464671  .00010103  00000+0  30974-3 0  9990","line2":"2 68084  53.1586 185.7985 0001131  65.3352 294.7768 15.34399424 13921","mean_motion":15.34399424,"eccentricity":0.0001131,"inclination_deg":53.1586,"raan_deg":185.7985,"arg_perigee_deg":65.3352,"mean_anomaly_deg":294.7768,"bstar":0.00030974,"rev_number":1392,"period_min":93.847793310955,"perigee_km":461.93125297623,"apogee_km":463.47865142582,"semimajor_km":6840.841952201,"source":"CELESTRAK","updated_at":"2026-05-25T13:38:21.820297Z"}}}